Regional Weather Roundup
Issued by NWS

Home | Current Version | Previous Version | Text Only | Print | Product List | Glossary On
Versions: 1 2 3 4 5 6 7 8 9 10 11 12 13 14 15 16 17 18 19 20 21 22 23 24 25 26 27 28 29 30 31 32 33 34 35 36 37 38 39 40 41 42 43 44 45 46 47 48 49 50
000
ASUS44 KLIX 050211
RWRLA
LOUISIANA WEATHER ROUNDUP
NATIONAL WEATHER SERVICE NEW ORLEANS LA
900 PM CDT MON MAY 04 2015

NOTE: "FAIR" INDICATES FEW OR NO CLOUDS BELOW 12,000 FEET WITH NO
      SIGNIFICANT WEATHER AND/OR OBSTRUCTIONS TO VISIBILITY.
      SKY/WX - SKY CONDITION AND SIGNIFICANT WEATHER.
      TMP - AIR TEMPERATURE.    DP   - DEWPOINT TEMPERATURE.
      RH  - RELATIVE HUMIDITY.  PRES - PRESSURE.
      HX  - HEAT INDEX.         WCI  - WIND CHILL INDEX.

*  THESE STATIONS ARE NOT NWS OR FAA STATIONS AND ARE NOT UNDER
   NWS QUALITY CONTROL.

LAZ040-048-061>063-065-066-069-050300-
SOUTHEAST LOUISIANA

CITY           SKY/WX    TMP DP  RH WIND       PRES   REMARKS
N.O. AUDUBON     N/A     76  64  67 MISG        N/A
N.O. INTL ARPT MOCLDY    74  62  66 SE10      30.15R
N.O. LAKEFRONT CLEAR     76  62  62 SE10      30.16R
SLIDELL        CLEAR     71  65  81 E5        30.16R
BATON ROUGE    CLOUDY    73  64  73 E8        30.14R
BOOTHVILLE     PTCLDY    72  62  71 SE7       30.16R
BELLE CHASSE   MOCLDY    74  61  63 SE10      30.15R
BOGALUSA*        N/A     74  64  70 SE3       30.18R
GALLIANO*      PTCLDY    76  64  65 SE5       30.15R
NEW ROADS*     FAIR      74  64  72 E5        30.13R
GONZALES*      FAIR      73  66  80 SE5       30.14R
HAMMOND*       CLEAR     72  63  73 SE5       30.18R
HOUMA*         MOCLDY    73  66  80 E12       30.14R
PORT FOURCHON* CLOUDY    77  64  65 SE20G28   30.16S

$$

LAZ041-044-053-054-050300-
SOUTHWEST LOUISIANA

CITY           SKY/WX    TMP DP  RH WIND       PRES   REMARKS
LAKE CHARLES   PTCLDY    73  69  87 SE8       30.08R
LAFAYETTE      CLEAR     72  68  87 CALM      30.11R
PATTERSON      CLEAR    N/A N/A N/A SE9       30.13S
SALT POINT       N/A     73  69  87 VRB5      30.10R
NEW IBERIA       N/A    N/A N/A N/A MISG      30.12R
CHENAULT AIRPK NOT AVBL

$$

LAZ027-028-050300-
CENTRAL LOUISIANA

CITY           SKY/WX    TMP DP  RH WIND       PRES   REMARKS
FORT POLK      PTCLDY    72  66  81 SE7       30.09R
ALEXANDRIA INT PTCLDY    70  67  90 S3        30.09R
ALEXANDRIA     MOCLDY    71  64  78 E3        30.11R

$$

LAZ001-002-050300-
NORTHWEST LOUISIANA

CITY           SKY/WX    TMP DP  RH WIND       PRES   REMARKS
SHREVEPORT     PTCLDY    70  58  65 SE3       30.06S
BARKSDALE AFB  CLEAR     69  59  68 E7        30.06S
DTN SHREVEPORT CLEAR     73  55  53 E5        30.06S

$$

LAZ014-016-050300-
NORTHEAST LOUISIANA

CITY           SKY/WX    TMP DP  RH WIND       PRES   REMARKS
MONROE         MOCLDY    75  64  68 E5        30.12R
TALLULAH       CLEAR     68  63  84 SE3       30.13R

$$




USA.gov is the U.S. government's official web portal to all federal, state and local government web resources and services.